| time (UTC) | temp F | wind direction | speed knots | gust knots | rain 1hr in | rain 24hr in | rain mn in | humidity % | barometer mb |
| 20260506013504 | 50 | 338 | 2.6 | 7.0 | 0.00 | 0.00 | 0.00 | 90 | 1009.2 |
| 20260506013004 | 50 | 334 | 4.3 | 7.0 | 0.00 | 0.00 | 0.00 | 90 | 1009.2 |
| 20260506012504 | 50 | 5 | 2.6 | 5.2 | 0.00 | 0.00 | 0.00 | 89 | 1009.2 |
| 20260506011504 | 50 | 23 | 3.5 | 7.0 | 0.00 | 0.00 | 0.00 | 89 | 1009.2 |
| 20260506011003 | 50 | 35 | 3.5 | 6.1 | 0.00 | 0.00 | 0.00 | 89 | 1009.1 |
| 20260506010503 | 51 | 346 | 1.7 | 4.3 | 0.00 | 0.00 | 0.00 | 89 | 1009.2 |
| 20260506010004 | 51 | 343 | 2.6 | 6.1 | 0.00 | 0.00 | 0.00 | 89 | 1009.2 |
| 20260506005003 | 51 | 349 | 2.6 | 6.1 | 0.00 | 0.00 | 0.00 | 89 | 1009.3 |
| 20260506004504 | 51 | 0 | 1.7 | 5.2 | 0.00 | 0.00 | 0.00 | 88 | 1009.3 |
| 20260506004003 | 51 | 355 | 2.6 | 4.3 | 0.00 | 0.00 | 0.00 | 88 | 1009.3 |
| 20260506003504 | 51 | 5 | 2.6 | 6.1 | 0.00 | 0.00 | 0.00 | 88 | 1009.4 |
| 20260506003004 | 51 | 24 | 4.3 | 7.0 | 0.00 | 0.00 | 0.00 | 87 | 1009.5 |
| 20260506002004 | 51 | 347 | 3.5 | 6.1 | 0.00 | 0.00 | 0.00 | 88 | 1009.6 |
| 20260506001504 | 51 | 342 | 2.6 | 6.1 | 0.00 | 0.00 | 0.00 | 88 | 1009.6 |
| 20260506001004 | 51 | 26 | 1.7 | 6.1 | 0.00 | 0.00 | 0.00 | 88 | 1009.6 |
| 20260506000504 | 51 | 19 | 2.6 | 6.1 | 0.00 | 0.00 | 0.00 | 88 | 1009.6 |
| 20260505235504 | 51 | 352 | 2.6 | 7.8 | 0.00 | 0.00 | 0.00 | 88 | 1009.6 |
| 20260505235004 | 51 | 30 | 2.6 | 7.0 | 0.00 | 0.00 | 0.00 | 88 | 1009.6 |
| 20260505234505 | 51 | 20 | 3.5 | 7.8 | 0.00 | 0.00 | 0.00 | 88 | 1009.6 |
| 20260505234004 | 51 | 5 | 3.5 | 7.8 | 0.00 | 0.00 | 0.00 | 88 | 1009.7 |
| 20260505233003 | 51 | 39 | 4.3 | 7.8 | 0.00 | 0.00 | 0.00 | 88 | 1009.8 |
| 20260505232504 | 51 | 4 | 4.3 | 10.4 | 0.00 | 0.00 | 0.00 | 88 | 1009.8 |
| 20260505231004 | 51 | 22 | 3.5 | 10.4 | 0.00 | 0.00 | 0.00 | 88 | 1009.8 |
| 20260505230504 | 52 | 17 | 2.6 | 4.3 | 0.00 | 0.00 | 0.00 | 88 | 1009.8 |
| 20260505230004 | 52 | 15 | 2.6 | 7.0 | 0.00 | 0.00 | 0.00 | 88 | 1009.8 |
| 20260505225504 | 52 | 28 | 4.3 | 7.0 | 0.00 | 0.00 | 0.00 | 87 | 1009.8 |
| 20260505225004 | 52 | 39 | 2.6 | 6.1 | 0.00 | 0.00 | 0.00 | 87 | 1009.8 |
| 20260505224504 | 52 | 31 | 3.5 | 6.1 | 0.00 | 0.00 | 0.00 | 87 | 1010.0 |
| 20260505224004 | 52 | 34 | 4.3 | 8.7 | 0.00 | 0.00 | 0.00 | 86 | 1010.0 |
| 20260505223504 | 52 | 32 | 2.6 | 7.8 | 0.00 | 0.00 | 0.00 | 86 | 1010.0 |
| 20260505223005 | 52 | 52 | 4.3 | 7.0 | 0.00 | 0.00 | 0.00 | 86 | 1010.0 |
| 20260505222004 | 52 | 18 | 2.6 | 7.0 | 0.00 | 0.00 | 0.00 | 85 | 1010.0 |
| 20260505221004 | 53 | 28 | 2.6 | 7.8 | 0.00 | 0.00 | 0.00 | 85 | 1009.9 |
| 20260505220004 | 53 | 24 | 4.3 | 12.2 | 0.00 | 0.00 | 0.00 | 85 | 1010.0 |
| 20260505215504 | 53 | 8 | 5.2 | 12.2 | 0.00 | 0.00 | 0.00 | 85 | 1009.9 |
| 20260505215005 | 53 | 27 | 3.5 | 7.8 | 0.00 | 0.00 | 0.00 | 85 | 1010.0 |
| 20260505214504 | 53 | 31 | 4.3 | 10.4 | 0.00 | 0.00 | 0.00 | 85 | 1010.0 |
| 20260505214004 | 53 | 26 | 5.2 | 8.7 | 0.00 | 0.00 | 0.00 | 85 | 1010.0 |
| 20260505213004 | 53 | 18 | 4.3 | 10.4 | 0.00 | 0.00 | 0.00 | 84 | 1010.0 |
| 20260505212503 | 53 | 20 | 4.3 | 11.3 | 0.00 | 0.00 | 0.00 | 85 | 1010.0 |
| 20260505211503 | 54 | 35 | 4.3 | 8.7 | 0.00 | 0.00 | 0.00 | 84 | 1010.0 |
| 20260505210504 | 54 | 36 | 2.6 | 10.4 | 0.00 | 0.00 | 0.00 | 83 | 1010.0 |
| 20260505210004 | 54 | 28 | 6.1 | 10.4 | 0.00 | 0.00 | 0.00 | 83 | 1010.1 |
| 20260505205504 | 54 | 19 | 4.3 | 8.7 | 0.00 | 0.00 | 0.00 | 83 | 1010.1 |
| 20260505205005 | 54 | 27 | 3.5 | 10.4 | 0.00 | 0.00 | 0.00 | 83 | 1010.1 |
| 20260505204505 | 54 | 25 | 4.3 | 10.4 | 0.00 | 0.00 | 0.00 | 83 | 1010.0 |
| 20260505204003 | 54 | 28 | 4.3 | 8.7 | 0.00 | 0.00 | 0.00 | 83 | 1010.0 |
| 20260505203005 | 54 | 32 | 5.2 | 11.3 | 0.00 | 0.00 | 0.00 | 83 | 1010.0 |
| 20260505202504 | 54 | 17 | 4.3 | 10.4 | 0.00 | 0.00 | 0.00 | 83 | 1009.9 |
| 20260505202005 | 55 | 22 | 4.3 | 10.4 | 0.00 | 0.00 | 0.00 | 83 | 1010.0 |
| 20260505201504 | 55 | 30 | 5.2 | 10.4 | 0.00 | 0.00 | 0.00 | 83 | 1009.8 |
| 20260505201003 | 55 | 30 | 4.3 | 7.8 | 0.00 | 0.00 | 0.00 | 83 | 1009.7 |
| 20260505200504 | 55 | 29 | 5.2 | 8.7 | 0.00 | 0.00 | 0.00 | 83 | 1009.7 |
| 20260505195504 | 55 | 25 | 3.5 | 8.7 | 0.00 | 0.00 | 0.00 | 83 | 1009.7 |
| 20260505195004 | 55 | 27 | 5.2 | 7.8 | 0.00 | 0.00 | 0.00 | 83 | 1009.7 |
| 20260505194504 | 55 | 23 | 4.3 | 11.3 | 0.00 | 0.00 | 0.00 | 83 | 1009.6 |
| 20260505194004 | 55 | 21 | 4.3 | 7.8 | 0.00 | 0.00 | 0.00 | 83 | 1009.6 |
| 20260505193504 | 55 | 25 | 2.6 | 7.0 | 0.00 | 0.00 | 0.00 | 83 | 1009.6 |
| 20260505192504 | 56 | 13 | 2.6 | 7.8 | 0.00 | 0.00 | 0.00 | 83 | 1009.5 |
| 20260505192004 | 56 | 28 | 2.6 | 8.7 | 0.00 | 0.00 | 0.00 | 84 | 1009.4 |
| 20260505191504 | 56 | 24 | 3.5 | 10.4 | 0.00 | 0.00 | 0.00 | 83 | 1009.4 |
| 20260505191004 | 56 | 24 | 2.6 | 7.0 | 0.00 | 0.00 | 0.00 | 83 | 1009.4 |
| 20260505190504 | 56 | 358 | 3.5 | 8.7 | 0.00 | 0.00 | 0.00 | 83 | 1009.3 |
| 20260505190004 | 56 | 20 | 4.3 | 7.8 | 0.00 | 0.00 | 0.00 | 83 | 1009.2 |
| 20260505185504 | 57 | 14 | 2.6 | 7.0 | 0.00 | 0.00 | 0.00 | 83 | 1009.2 |
| 20260505185004 | 57 | 24 | 5.2 | 7.8 | 0.00 | 0.00 | 0.00 | 83 | 1009.2 |
| 20260505184504 | 57 | 17 | 2.6 | 10.4 | 0.00 | 0.00 | 0.00 | 83 | 1009.2 |
| 20260505184004 | 57 | 25 | 4.3 | 8.7 | 0.00 | 0.00 | 0.00 | 82 | 1009.2 |
| 20260505183504 | 57 | 40 | 4.3 | 7.8 | 0.00 | 0.00 | 0.00 | 82 | 1009.1 |
| 20260505183004 | 57 | 352 | 3.5 | 7.8 | 0.00 | 0.00 | 0.00 | 81 | 1009.2 |
| 20260505182004 | 58 | 21 | 4.3 | 7.0 | 0.00 | 0.00 | 0.00 | 81 | 1009.1 |
| 20260505181504 | 58 | 23 | 4.3 | 8.7 | 0.00 | 0.00 | 0.00 | 80 | 1009.1 |
| 20260505181003 | 58 | 18 | 4.3 | 8.7 | 0.00 | 0.00 | 0.00 | 80 | 1009.2 |
| 20260505180504 | 58 | 14 | 5.2 | 10.4 | 0.00 | 0.00 | 0.00 | 81 | 1009.2 |
| 20260505180004 | 59 | 20 | 2.6 | 7.0 | 0.00 | 0.00 | 0.00 | 81 | 1009.2 |
| 20260505175504 | 58 | 32 | 1.7 | 4.3 | 0.00 | 0.00 | 0.00 | 84 | 1009.2 |
| 20260505174504 | 58 | 67 | 0.9 | 2.6 | 0.00 | 0.00 | 0.00 | 84 | 1009.2 |
| 20260505174004 | 59 | 68 | 2.6 | 4.3 | 0.00 | 0.00 | 0.00 | 83 | 1009.2 |
| 20260505173004 | 59 | 71 | 1.7 | 7.8 | 0.00 | 0.00 | 0.00 | 82 | 1009.1 |
| 20260505172504 | 60 | 52 | 2.6 | 6.1 | 0.00 | 0.00 | 0.00 | 80 | 1009.1 |
| 20260505172004 | 59 | 31 | 2.6 | 8.7 | 0.00 | 0.00 | 0.00 | 80 | 1009.2 |
| 20260505171504 | 59 | 28 | 3.5 | 6.1 | 0.00 | 0.00 | 0.00 | 81 | 1009.2 |
| 20260505171004 | 59 | 35 | 3.5 | 7.0 | 0.00 | 0.00 | 0.00 | 82 | 1009.2 |
| 20260505170504 | 59 | 47 | 1.7 | 6.1 | 0.00 | 0.00 | 0.00 | 83 | 1009.2 |
| 20260505170004 | 59 | 61 | 0.9 | 7.0 | 0.00 | 0.00 | 0.00 | 83 | 1009.2 |
| 20260505165504 | 59 | 62 | 2.6 | 7.0 | 0.00 | 0.00 | 0.00 | 84 | 1009.2 |
| 20260505165003 | 59 | 38 | 2.6 | 6.1 | 0.00 | 0.00 | 0.00 | 83 | 1009.3 |
| 20260505164504 | 58 | 59 | 3.5 | 8.7 | 0.00 | 0.00 | 0.00 | 84 | 1009.3 |
| 20260505164003 | 58 | 41 | 3.5 | 7.8 | 0.00 | 0.00 | 0.00 | 84 | 1009.4 |
| 20260505163504 | 58 | 63 | 3.5 | 8.7 | 0.00 | 0.00 | 0.00 | 84 | 1009.3 |
| 20260505163004 | 58 | 36 | 3.5 | 6.1 | 0.00 | 0.00 | 0.00 | 85 | 1009.3 |
| 20260505162504 | 58 | 45 | 4.3 | 7.0 | 0.00 | 0.00 | 0.00 | 84 | 1009.4 |
| 20260505162004 | 58 | 63 | 2.6 | 7.0 | 0.00 | 0.00 | 0.00 | 84 | 1009.4 |
| 20260505161504 | 59 | 22 | 5.2 | 8.7 | 0.00 | 0.00 | 0.00 | 83 | 1009.4 |
| 20260505161003 | 59 | 44 | 2.6 | 7.8 | 0.00 | 0.00 | 0.00 | 84 | 1009.5 |
| 20260505160504 | 59 | 67 | 3.5 | 6.1 | 0.00 | 0.00 | 0.00 | 84 | 1009.5 |
| 20260505115004 | 55 | 22 | 2.6 | 7.0 | 0.00 | 0.00 | 0.00 | 91 | 1010.8 |
| 20260505113504 | 55 | 55 | 2.6 | 7.8 | 0.00 | 0.00 | 0.00 | 92 | 1010.9 |
| 20260505113004 | 55 | 25 | 4.3 | 6.1 | 0.00 | 0.01 | 0.00 | 92 | 1010.8 |
| 20260505112504 | 55 | 59 | 2.6 | 7.0 | 0.00 | 0.01 | 0.00 | 92 | 1010.9 |
| 20260505112005 | 55 | 32 | 4.3 | 7.8 | 0.00 | 0.01 | 0.00 | 92 | 1010.9 |
| 20260505111503 | 55 | 30 | 4.3 | 7.8 | 0.00 | 0.01 | 0.00 | 92 | 1011.0 |
| 20260505110505 | 55 | 31 | 2.6 | 7.0 | 0.00 | 0.01 | 0.00 | 92 | 1011.0 |
| 20260505102005 | 54 | 31 | 6.1 | 8.7 | 0.00 | 0.01 | 0.00 | 93 | 1011.0 |
| 20260505101505 | 54 | 16 | 5.2 | 10.4 | 0.00 | 0.01 | 0.00 | 93 | 1011.1 |
| 20260505101004 | 54 | 14 | 4.3 | 7.8 | 0.00 | 0.01 | 0.00 | 93 | 1011.1 |
| 20260505100504 | 54 | 23 | 4.3 | 7.8 | 0.00 | 0.01 | 0.00 | 94 | 1011.1 |
| 20260505100003 | 53 | 30 | 4.3 | 8.7 | 0.00 | 0.01 | 0.00 | 94 | 1011.0 |
| 20260505095504 | 53 | 33 | 5.2 | 11.3 | 0.00 | 0.01 | 0.00 | 94 | 1011.0 |
| 20260505095003 | 53 | 24 | 4.3 | 10.4 | 0.00 | 0.01 | 0.00 | 94 | 1011.0 |
| 20260505094504 | 53 | 29 | 5.2 | 10.4 | 0.00 | 0.01 | 0.00 | 94 | 1011.0 |
| 20260505094004 | 53 | 16 | 2.6 | 8.7 | 0.00 | 0.01 | 0.00 | 94 | 1011.0 |
| 20260505093004 | 53 | 31 | 4.3 | 8.7 | 0.00 | 0.01 | 0.00 | 94 | 1011.0 |
| 20260505092504 | 53 | 23 | 5.2 | 7.8 | 0.00 | 0.01 | 0.00 | 94 | 1011.0 |
| 20260505092004 | 53 | 353 | 4.3 | 7.8 | 0.00 | 0.01 | 0.00 | 94 | 1011.1 |
| 20260505091505 | 53 | 26 | 2.6 | 6.1 | 0.00 | 0.01 | 0.00 | 94 | 1011.1 |
| 20260505091004 | 53 | 28 | 2.6 | 10.4 | 0.00 | 0.01 | 0.00 | 94 | 1011.2 |
| 20260505090503 | 53 | 13 | 4.3 | 10.4 | 0.00 | 0.01 | 0.00 | 94 | 1011.2 |
| 20260505090004 | 53 | 30 | 5.2 | 8.7 | 0.00 | 0.01 | 0.00 | 94 | 1011.2 |
| 20260505085504 | 53 | 26 | 5.2 | 10.4 | 0.00 | 0.01 | 0.00 | 94 | 1011.3 |
| 20260505085005 | 53 | 30 | 5.2 | 10.4 | 0.00 | 0.01 | 0.00 | 94 | 1011.2 |
| 20260505083507 | 53 | 27 | 4.3 | 7.0 | 0.00 | 0.01 | 0.00 | 93 | 1011.2 |
| 20260505083005 | 53 | 20 | 3.5 | 8.7 | 0.00 | 0.01 | 0.00 | 94 | 1011.2 |
| 20260505082505 | 53 | 18 | 2.6 | 7.0 | 0.00 | 0.01 | 0.00 | 94 | 1011.2 |
| 20260505082004 | 53 | 10 | 3.5 | 6.1 | 0.00 | 0.01 | 0.00 | 94 | 1011.2 |
| 20260505081505 | 53 | 28 | 4.3 | 6.1 | 0.00 | 0.01 | 0.00 | 94 | 1011.3 |
| 20260505081003 | 53 | 24 | 4.3 | 7.8 | 0.00 | 0.01 | 0.00 | 94 | 1011.3 |
| 20260505080506 | 52 | 30 | 2.6 | 6.1 | 0.00 | 0.01 | 0.00 | 93 | 1011.3 |
| 20260505074506 | 52 | 2 | 3.5 | 7.0 | 0.00 | 0.01 | 0.00 | 93 | 1011.4 |
| 20260505074004 | 52 | 6 | 2.6 | 5.2 | 0.00 | 0.01 | 0.00 | 93 | 1011.3 |
| 20260505073506 | 52 | 354 | 2.6 | 7.0 | 0.00 | 0.01 | 0.00 | 93 | 1011.3 |
| 20260505073004 | 52 | 25 | 4.3 | 7.0 | 0.00 | 0.01 | 0.00 | 93 | 1011.4 |
| 20260505072504 | 52 | 26 | 2.6 | 7.0 | 0.00 | 0.01 | 0.00 | 94 | 1011.2 |
| 20260505072004 | 52 | 22 | 4.3 | 8.7 | 0.00 | 0.01 | 0.00 | 94 | 1011.3 |
| 20260505071504 | 52 | 26 | 4.3 | 8.7 | 0.00 | 0.01 | 0.00 | 94 | 1011.3 |
| 20260505071004 | 52 | 19 | 4.3 | 7.8 | 0.00 | 0.01 | 0.00 | 94 | 1011.3 |
| 20260505070506 | 52 | 26 | 5.2 | 10.4 | 0.00 | 0.01 | 0.00 | 94 | 1011.4 |
| 20260505070004 | 52 | 27 | 6.1 | 10.4 | 0.00 | 0.01 | 0.00 | 94 | 1011.3 |
| 20260505065503 | 52 | 24 | 3.5 | 7.0 | 0.00 | 0.01 | 0.00 | 94 | 1011.3 |
| 20260505064506 | 52 | 349 | 4.3 | 7.8 | 0.00 | 0.01 | 0.00 | 94 | 1011.3 |
| 20260505064005 | 52 | 0 | 4.3 | 8.7 | 0.00 | 0.01 | 0.00 | 94 | 1011.3 |
| 20260505063504 | 52 | 10 | 2.6 | 6.1 | 0.00 | 0.01 | 0.00 | 94 | 1011.3 |
| 20260505063005 | 52 | 45 | 3.5 | 8.7 | 0.00 | 0.01 | 0.00 | 94 | 1011.5 |
| 20260505062504 | 52 | 31 | 4.3 | 8.7 | 0.00 | 0.01 | 0.00 | 94 | 1011.5 |
| 20260505062003 | 52 | 29 | 3.5 | 7.0 | 0.00 | 0.01 | 0.00 | 94 | 1011.5 |
| 20260505060504 | 53 | 331 | 2.6 | 6.1 | 0.00 | 0.01 | 0.00 | 94 | 1011.4 |
| 20260505055504 | 53 | 0 | 4.3 | 7.8 | 0.00 | 0.01 | 0.00 | 94 | 1011.4 |
| 20260505055004 | 53 | 355 | 2.6 | 5.2 | 0.00 | 0.01 | 0.00 | 94 | 1011.5 |
| 20260505054005 | 53 | 19 | 3.5 | 6.1 | 0.00 | 0.01 | 0.00 | 94 | 1011.5 |
| 20260505053503 | 53 | 28 | 2.6 | 8.7 | 0.00 | 0.01 | 0.00 | 94 | 1011.5 |
| 20260505053004 | 53 | 27 | 3.5 | 7.8 | 0.00 | 0.01 | 0.00 | 94 | 1011.4 |
| 20260505052003 | 53 | 340 | 4.3 | 7.0 | 0.00 | 0.01 | 0.00 | 94 | 1011.3 |
| 20260505051504 | 53 | 2 | 2.6 | 7.0 | 0.00 | 0.01 | 0.00 | 94 | 1011.4 |
| 20260505051005 | 53 | 354 | 3.5 | 6.1 | 0.00 | 0.01 | 0.00 | 94 | 1011.3 |
| 20260505050504 | 53 | 24 | 2.6 | 7.0 | 0.00 | 0.01 | 0.00 | 94 | 1011.4 |
| 20260505041504 | 54 | 25 | 1.7 | 6.1 | 0.00 | 0.01 | 0.00 | 94 | 1011.3 |
| 20260505041005 | 54 | 328 | 2.6 | 5.2 | 0.00 | 0.01 | 0.00 | 94 | 1011.2 |
| 20260505040506 | 54 | 28 | 1.7 | 6.1 | 0.00 | 0.01 | 0.00 | 94 | 1011.3 |
| 20260505040005 | 54 | 4 | 5.2 | 7.8 | 0.00 | 0.01 | 0.00 | 93 | 1011.4 |
| 20260505035504 | 54 | 5 | 3.5 | 7.8 | 0.00 | 0.01 | 0.00 | 93 | 1011.4 |
| 20260505035004 | 54 | 345 | 4.3 | 7.8 | 0.00 | 0.01 | 0.00 | 94 | 1011.4 |
| 20260505034503 | 54 | 35 | 3.5 | 7.8 | 0.00 | 0.01 | 0.00 | 94 | 1011.4 |
| 20260505034003 | 54 | 29 | 3.5 | 7.8 | 0.00 | 0.01 | 0.00 | 94 | 1011.5 |
| 20260505033504 | 54 | 24 | 3.5 | 7.0 | 0.00 | 0.01 | 0.00 | 93 | 1011.5 |
| 20260505033003 | 54 | 5 | 4.3 | 7.0 | 0.00 | 0.01 | 0.00 | 93 | 1011.5 |
| 20260505032505 | 54 | 0 | 3.5 | 7.0 | 0.00 | 0.01 | 0.00 | 93 | 1011.6 |
| 20260505032005 | 54 | 356 | 3.5 | 6.1 | 0.00 | 0.01 | 0.00 | 93 | 1011.5 |
| 20260505031503 | 54 | 35 | 2.6 | 6.1 | 0.00 | 0.01 | 0.00 | 93 | 1011.6 |
| 20260505031004 | 54 | 336 | 3.5 | 7.0 | 0.00 | 0.01 | 0.00 | 93 | 1011.6 |
| 20260505030504 | 54 | 28 | 2.6 | 7.8 | 0.00 | 0.01 | 0.00 | 93 | 1011.5 |
| 20260505030004 | 54 | 33 | 4.3 | 7.0 | 0.00 | 0.01 | 0.00 | 93 | 1011.5 |
| 20260505025505 | 55 | 32 | 3.5 | 7.0 | 0.00 | 0.01 | 0.00 | 93 | 1011.6 |
| 20260505025005 | 55 | 15 | 3.5 | 7.0 | 0.00 | 0.01 | 0.00 | 93 | 1011.5 |
| 20260505024505 | 55 | 25 | 5.2 | 8.7 | 0.00 | 0.01 | 0.00 | 93 | 1011.6 |
| 20260505024004 | 55 | 28 | 5.2 | 10.4 | 0.00 | 0.01 | 0.00 | 93 | 1011.5 |
| 20260505023505 | 55 | 22 | 4.3 | 7.8 | 0.00 | 0.01 | 0.00 | 93 | 1011.5 |
| 20260505023004 | 55 | 40 | 4.3 | 7.8 | 0.00 | 0.01 | 0.00 | 93 | 1011.6 |
| 20260505022505 | 55 | 41 | 4.3 | 7.8 | 0.00 | 0.01 | 0.00 | 93 | 1011.6 |
| 20260505021504 | 55 | 24 | 2.6 | 6.1 | 0.00 | 0.01 | 0.00 | 93 | 1011.6 |
| 20260505021003 | 55 | 17 | 4.3 | 7.0 | 0.00 | 0.01 | 0.00 | 93 | 1011.6 |
| 20260505020505 | 55 | 11 | 3.5 | 10.4 | 0.00 | 0.01 | 0.00 | 93 | 1011.6 |
| 20260505020004 | 55 | 26 | 4.3 | 10.4 | 0.00 | 0.01 | 0.00 | 93 | 1011.5 |
| 20260505015505 | 55 | 354 | 2.6 | 8.7 | 0.00 | 0.01 | 0.00 | 93 | 1011.5 |
| 20260505015004 | 56 | 25 | 4.3 | 7.8 | 0.00 | 0.01 | 0.00 | 93 | 1011.5 |
| 20260505014504 | 56 | 28 | 2.6 | 5.2 | 0.00 | 0.01 | 0.00 | 93 | 1011.6 |
| 20260505014004 | 56 | 29 | 2.6 | 5.2 | 0.00 | 0.01 | 0.00 | 93 | 1011.6 |